Terug naar catalogus

ATLAS 5 CENTAUR DEB

LostHEO
NORAD 45472·DEBRIS·🇺🇸 United States

Gelanceerd Oct 17, 2018 vanaf Cape Canaveral Space Force Station

Loading…

Volgende Passages (komende 24 uur)

TLE

VerouderdSource: Space-Track

Epoch: May 29, 2026, 09:22 UTC

1 45472U 18079BU  26149.39066091 -.00000092  00000-0  00000-0 0  9995
2 45472  13.4083  31.2348 4781983 323.2808  12.0197  1.81833165 32281

Volg ATLAS 5 CENTAUR DEB in realtime met AllMySat

Download on the App Store